Location: Home
(51.5204°N, 2.5456°W)
Time: 01:31:23
(UTC+00:00)

STRAND 1 - Pass Details

Date: 11 December 2019
Orbit: 768 x 781 km, 98.5° (Epoch: 23 January)

Event Time Altitude Azimuth Distance (km) Brightness Sun altitude
Rises 06:44:20 0° 168° (SSE) 3,246 ? -11.7°
Reaches altitude 10° 06:46:39 10° 170° (S) 2,321 ? -11.4°
Maximum altitude 06:51:46 75° 256° (WSW) 805 ? -10.7°
Drops below altitude 10° 06:56:55 10° 342° (NNW) 2,329 ? -9.9°
Sets 06:59:14 0° 344° (NNW) 3,259 ? -9.6°
